Home   Weather   Borås   Past weeks
Flag for Sweden

Past Weather in Borås, Sweden — Yesterday and Last 2 Weeks

Now
50 °F

Sunny.


Feels Like: 46 °F
Forecast: 58 / 46 °F
Wind: 12 mph from Southwest

Location: Gothenburg / Landvetter

Current Time: Oct 23, 2019 at 6:07:29 pm

Latest Report: Oct 23, 2019 at 5:20 pm


Visibility: 10 mi

Pressure: 29.98 "Hg

Humidity: 82%

Dew Point: 45 °F

Location of BoråsLocation

Past Weather in Borås — Graph

°F

Borås Temperature Yesterday

Maximum temperature yesterday: 52 °F (at 3:50 pm)
Minimum temperature yesterday: 39 °F (at 4:50 am)
Average temperature yesterday: 47 °F

High & Low Weather Summary for the Past Weeks

 TemperatureHumidityPressure
High55 °F (Oct 14, 3:20 am)100% (Oct 8, 5:20 pm)30.12 "Hg (Oct 8, 5:20 pm)
Low39 °F (Oct 21, 8:20 am)67% (Oct 23, 12:50 pm)29.36 "Hg (Oct 11, 7:50 pm)
Average49 °F91%29.70 "Hg
* Reported Oct 8 4:20 pm — Oct 23 4:50 pm, Borås. Weather by CustomWeather, © 2019

Note: Actual official high and low records may vary slightly from our data, if they occured in-between our weather recording intervals... More about our weather records

Advertising

Borås Weather History for the Previous 24 Hours

Scroll right to see more
 ConditionsComfort  
Time TempWeatherWind HumidityBarometerVisibility
4:50 pm
Wed, Oct 23
50 °FScattered clouds.14 mph82%29.98 "HgN/A
4:20 pm52 °FBroken clouds.14 mph72%30.01 "HgN/A
3:50 pm52 °FPassing clouds.14 mph72%30.01 "HgN/A
3:20 pm54 °FPassing clouds.17 mph67%30.01 "HgN/A
2:50 pm54 °FPassing clouds.17 mph67%30.01 "HgN/A
2:20 pm52 °FPartly sunny.15 mph72%30.04 "HgN/A
1:50 pm52 °FPartly sunny.15 mph67%30.04 "HgN/A
1:20 pm52 °FPartly sunny.16 mph67%30.04 "HgN/A
12:50 pm52 °FPartly sunny.15 mph67%30.04 "HgN/A
12:20 pm50 °FPartly sunny.14 mph76%30.04 "HgN/A
11:50 am50 °FPartly sunny.14 mph76%30.04 "HgN/A
11:20 am50 °FPartly sunny.14 mph76%30.04 "HgN/A
10:50 am50 °FPartly sunny.16 mph71%30.04 "HgN/A
10:20 am50 °FPartly sunny.14 mph71%30.04 "HgN/A
9:50 am50 °FPartly sunny.14 mph71%30.01 "HgN/A
9:20 am50 °FPartly sunny.14 mph71%30.01 "HgN/A
8:50 am50 °FPartly sunny.14 mph76%30.01 "HgN/A
8:20 am48 °FPartly sunny.12 mph82%30.01 "HgN/A
7:50 am48 °FOvercast.12 mph82%30.01 "HgN/A
7:20 am48 °FPassing clouds.12 mph82%30.01 "HgN/A
6:50 am48 °FPassing clouds.13 mph87%30.01 "HgN/A
6:20 am48 °FPartly cloudy.13 mph87%30.01 "HgN/A
5:50 am48 °FLow clouds.14 mph87%30.01 "HgN/A
5:20 am48 °FPartly cloudy.14 mph87%30.01 "HgN/A
4:50 am48 °FMostly cloudy.13 mph87%30.01 "HgN/A
4:20 am50 °FOvercast.14 mph82%30.01 "HgN/A
3:50 am50 °FPartly cloudy.14 mph82%30.01 "HgN/A
3:20 am50 °FMostly cloudy.14 mph82%30.01 "HgN/A
2:50 am48 °FMostly cloudy.14 mph87%30.01 "HgN/A
2:20 am48 °FMostly cloudy.15 mph87%30.01 "HgN/A
1:50 am48 °FMostly cloudy.14 mph87%30.01 "HgN/A
1:20 am48 °FMostly cloudy.13 mph87%30.01 "HgN/A
12:50 am50 °FOvercast.14 mph82%30.01 "HgN/A
12:20 am50 °FOvercast.16 mph82%30.01 "HgN/A
11:50 pm
Tue, Oct 22
50 °FOvercast.17 mph82%30.01 "HgN/A
11:20 pm50 °FOvercast.16 mph82%30.01 "HgN/A
10:50 pm50 °FOvercast.16 mph76%30.01 "HgN/A
10:20 pm50 °FMostly cloudy.17 mph76%30.01 "HgN/A
9:50 pm50 °FMostly cloudy.16 mph76%30.01 "HgN/A
9:20 pm50 °FPartly cloudy.16 mph76%30.01 "HgN/A
8:50 pm50 °FPassing clouds.16 mph76%30.01 "HgN/A
8:20 pm50 °FPassing clouds.15 mph82%30.01 "HgN/A
7:50 pm50 °FPartly cloudy.16 mph76%30.01 "HgN/A
7:20 pm50 °FPassing clouds.14 mph76%30.01 "HgN/A
6:50 pm50 °FPassing clouds.16 mph82%30.01 "HgN/A
6:20 pm50 °FOvercast.18 mph88%29.98 "HgN/A
Weather by CustomWeather, © 2019

See weather overview